Time,TemperatureF,DewpointF,PressureIn,WindDirection,WindDirectionDegrees,WindSpeedMPH,WindSpeedGustMPH,Humidity,HourlyPrecipIn,Conditions,Clouds,dailyrainin,SolarRadiationWatts/m^2,SoftwareType,DateUTC
2013-04-25 00:02:00,49.2,46.1,29.92,NNE,14,2.8,3.5,89,0.00,,,0.00,0.0,WeatherDisplay:10.37,2013-04-25 07:02:00,
2013-04-25 00:07:00,49.2,45.8,29.92,NNE,14,0.5,1.2,88,0.00,,,0.00,0.0,WeatherDisplay:10.37,2013-04-25 07:07:00,
2013-04-25 00:12:00,48.9,45.5,29.92,NNE,14,0.6,2.3,88,0.00,,,0.00,0.0,WeatherDisplay:10.37,2013-04-25 07:12:00,
2013-04-25 00:17:00,48.5,45.1,29.93,NNE,14,0.3,1.2,88,0.00,,,0.00,0.0,WeatherDisplay:10.37,2013-04-25 07:17:00,
2013-04-25 00:22:00,48.3,45.2,29.93,NNE,14,0.6,3.5,89,0.00,,,0.00,0.0,WeatherDisplay:10.37,2013-04-25 07:22:00,
2013-04-25 00:27:00,48.3,45.2,29.93,NNE,14,0.4,3.5,89,0.00,,,0.00,0.0,WeatherDisplay:10.37,2013-04-25 07:27:00,
2013-04-25 00:32:00,48.4,45.3,29.93,NNE,14,0.1,1.2,89,0.00,,,0.00,0.0,WeatherDisplay:10.37,2013-04-25 07:32:00,
2013-04-25 00:37:00,48.4,45.3,29.93,NNE,14,0.0,0.0,89,0.00,,,0.00,0.0,WeatherDisplay:10.37,2013-04-25 07:37:00,
2013-04-25 00:42:00,48.3,45.2,29.93,NNE,14,0.1,1.0,89,0.00,,,0.00,0.0,WeatherDisplay:10.37,2013-04-25 07:42:00,
2013-04-25 00:47:00,48.3,45.2,29.93,NNE,14,1.2,3.5,89,0.00,,,0.00,0.0,WeatherDisplay:10.37,2013-04-25 07:47:00,
2013-04-25 00:52:00,48.2,45.1,29.93,NNE,14,2.5,3.5,89,0.00,,,0.00,0.0,WeatherDisplay:10.37,2013-04-25 07:52:00,
2013-04-25 00:57:00,48.0,44.9,29.93,NNE,14,2.7,3.5,89,0.00,,,0.00,0.0,WeatherDisplay:10.37,2013-04-25 07:57:00,
2013-04-25 01:02:00,48.0,45.2,29.93,NNE,14,2.6,4.0,90,0.00,,,0.00,0.0,WeatherDisplay:10.37,2013-04-25 08:02:00,
2013-04-25 01:07:00,48.8,46.0,29.94,North,5,1.9,3.5,90,0.00,,,0.00,0.0,WeatherDisplay:10.37,2013-04-25 08:07:00,
2013-04-25 01:12:00,49.5,46.7,29.94,NNW,336,2.9,4.6,90,0.00,,,0.00,0.0,WeatherDisplay:10.37,2013-04-25 08:12:00,
2013-04-25 01:17:00,49.9,46.8,29.94,West,267,1.3,2.3,89,0.00,,,0.00,0.0,WeatherDisplay:10.37,2013-04-25 08:17:00,
2013-04-25 01:22:00,50.3,46.9,29.94,North,360,0.1,2.3,88,0.00,,,0.00,0.0,WeatherDisplay:10.37,2013-04-25 08:22:00,
2013-04-25 01:27:00,50.6,46.9,29.94,WNW,289,0.4,1.2,87,0.00,,,0.00,0.0,WeatherDisplay:10.37,2013-04-25 08:27:00,
2013-04-25 01:32:00,50.6,46.9,29.94,WNW,288,1.0,3.5,87,0.00,,,0.00,0.0,WeatherDisplay:10.37,2013-04-25 08:32:00,
2013-04-25 01:37:00,50.6,46.6,29.94,WNW,289,0.0,0.0,86,0.00,,,0.00,0.0,WeatherDisplay:10.37,2013-04-25 08:37:00,
2013-04-25 01:42:00,50.3,46.3,29.94,WNW,288,0.0,2.3,86,0.00,,,0.00,0.0,WeatherDisplay:10.37,2013-04-25 08:42:00,
2013-04-25 01:47:00,50.1,46.1,29.94,WNW,288,1.3,3.5,86,0.00,,,0.00,0.0,WeatherDisplay:10.37,2013-04-25 08:47:00,
2013-04-25 01:52:00,50.0,46.0,29.94,WNW,288,0.0,1.2,86,0.00,,,0.00,0.0,WeatherDisplay:10.37,2013-04-25 08:52:00,
2013-04-25 01:57:00,49.7,46.0,29.94,West,271,0.2,3.5,87,0.00,,,0.00,0.0,WeatherDisplay:10.37,2013-04-25 08:57:00,
2013-04-25 02:02:00,49.7,46.0,29.94,West,273,1.0,2.3,87,0.00,,,0.00,0.0,WeatherDisplay:10.37,2013-04-25 09:02:00,
2013-04-25 02:07:00,49.7,46.0,29.94,West,273,0.0,0.0,87,0.00,,,0.00,0.0,WeatherDisplay:10.37,2013-04-25 09:07:00,
2013-04-25 02:12:00,49.7,46.0,29.94,West,275,0.5,1.2,87,0.00,,,0.00,0.0,WeatherDisplay:10.37,2013-04-25 09:12:00,
2013-04-25 02:17:00,49.7,46.0,29.94,West,275,0.0,0.0,87,0.00,,,0.00,0.0,WeatherDisplay:10.37,2013-04-25 09:17:00,
2013-04-25 02:22:00,49.7,46.0,29.94,West,275,0.6,2.3,87,0.00,,,0.00,0.0,WeatherDisplay:10.37,2013-04-25 09:22:00,
2013-04-25 02:27:00,49.9,46.2,29.94,West,275,0.1,1.2,87,0.00,,,0.00,0.0,WeatherDisplay:10.37,2013-04-25 09:27:00,
2013-04-25 02:32:00,49.8,46.1,29.94,West,275,0.2,1.2,87,0.00,,,0.00,0.0,WeatherDisplay:10.37,2013-04-25 09:32:00,
2013-04-25 02:37:00,49.4,45.7,29.94,West,272,0.6,0.0,87,0.00,,,0.00,0.0,WeatherDisplay:10.37,2013-04-25 09:37:00,
2013-04-25 02:42:00,49.9,46.5,29.94,West,273,0.1,1.0,88,0.00,,,0.00,0.0,WeatherDisplay:10.37,2013-04-25 09:42:00,
2013-04-25 02:47:00,50.4,47.0,29.94,SW,216,5.5,10.4,88,0.00,,,0.00,0.0,WeatherDisplay:10.37,2013-04-25 09:47:00,
2013-04-25 02:52:00,50.8,47.1,29.94,West,272,0.3,3.5,87,0.00,,,0.00,0.0,WeatherDisplay:10.37,2013-04-25 09:52:00,
2013-04-25 02:57:00,50.8,46.8,29.94,South,171,0.5,0.0,86,0.00,,,0.00,0.0,WeatherDisplay:10.37,2013-04-25 09:57:00,
2013-04-25 03:02:00,51.0,47.3,29.94,WSW,242,4.4,9.2,87,0.00,,,0.00,0.0,WeatherDisplay:10.37,2013-04-25 10:02:00,
2013-04-25 03:07:00,51.4,47.4,29.94,SSE,160,2.0,3.5,86,0.00,,,0.00,0.0,WeatherDisplay:10.37,2013-04-25 10:07:00,
2013-04-25 03:12:00,51.5,47.1,29.94,West,269,0.6,3.5,85,0.00,,,0.00,0.0,WeatherDisplay:10.37,2013-04-25 10:12:00,
2013-04-25 03:17:00,51.5,47.1,29.94,South,190,1.0,2.3,85,0.00,,,0.00,0.0,WeatherDisplay:10.37,2013-04-25 10:17:00,
2013-04-25 03:22:00,51.7,47.3,29.94,NW,306,0.9,8.0,85,0.00,,,0.00,0.0,WeatherDisplay:10.37,2013-04-25 10:22:00,
2013-04-25 03:27:00,51.3,46.9,29.94,West,275,0.2,1.2,85,0.00,,,0.00,0.0,WeatherDisplay:10.37,2013-04-25 10:27:00,
2013-04-25 03:32:00,51.0,46.6,29.95,WNW,300,0.0,2.3,85,0.00,,,0.00,0.0,WeatherDisplay:10.37,2013-04-25 10:32:00,
2013-04-25 03:37:00,50.2,45.6,29.95,WNW,301,1.6,4.0,84,0.00,,,0.00,0.0,WeatherDisplay:10.37,2013-04-25 10:37:00,
2013-04-25 03:42:00,50.1,46.1,29.95,WNW,300,0.3,3.5,86,0.00,,,0.00,0.0,WeatherDisplay:10.37,2013-04-25 10:42:00,
2013-04-25 03:47:00,50.2,46.2,29.95,WNW,303,1.7,3.5,86,0.00,,,0.00,0.0,WeatherDisplay:10.37,2013-04-25 10:47:00,
2013-04-25 03:52:00,50.6,46.6,29.94,WNW,295,0.0,0.0,86,0.00,,,0.00,0.0,WeatherDisplay:10.37,2013-04-25 10:52:00,
2013-04-25 03:57:00,50.3,46.3,29.94,WNW,295,1.4,3.5,86,0.00,,,0.00,0.0,WeatherDisplay:10.37,2013-04-25 10:57:00,
2013-04-25 04:02:00,50.2,46.2,29.95,WNW,296,0.6,3.5,86,0.00,,,0.00,0.0,WeatherDisplay:10.37,2013-04-25 11:02:00,
2013-04-25 04:07:00,50.0,46.0,29.95,WNW,296,0.3,0.0,86,0.00,,,0.00,0.0,WeatherDisplay:10.37,2013-04-25 11:07:00,
2013-04-25 04:12:00,49.5,45.5,29.95,WNW,296,0.0,1.2,86,0.00,,,0.00,0.0,WeatherDisplay:10.37,2013-04-25 11:12:00,
2013-04-25 04:17:00,49.3,45.6,29.95,WNW,296,0.5,3.5,87,0.00,,,0.00,0.0,WeatherDisplay:10.37,2013-04-25 11:17:00,
2013-04-25 04:22:00,49.7,46.0,29.95,WNW,296,0.2,1.2,87,0.00,,,0.00,0.0,WeatherDisplay:10.37,2013-04-25 11:22:00,
2013-04-25 04:27:00,49.3,45.6,29.96,WNW,295,0.1,1.2,87,0.00,,,0.00,0.0,WeatherDisplay:10.37,2013-04-25 11:27:00,
2013-04-25 04:32:00,49.2,45.8,29.96,WNW,296,2.1,3.5,88,0.00,,,0.00,0.0,WeatherDisplay:10.37,2013-04-25 11:32:00,
2013-04-25 04:37:00,49.9,46.5,29.96,WNW,296,0.9,3.0,88,0.00,,,0.00,0.0,WeatherDisplay:10.37,2013-04-25 11:37:00,
2013-04-25 04:42:00,50.3,47.8,29.96,WNW,296,0.0,1.2,91,0.00,,,0.00,0.0,WeatherDisplay:10.37,2013-04-25 11:42:00,
2013-04-25 04:47:00,50.7,47.3,29.96,WNW,296,0.0,1.2,88,0.00,,,0.00,0.0,WeatherDisplay:10.37,2013-04-25 11:47:00,
2013-04-25 04:52:00,51.0,47.3,29.96,WNW,295,0.1,1.2,87,0.00,,,0.00,0.0,WeatherDisplay:10.37,2013-04-25 11:52:00,
2013-04-25 04:57:00,50.2,46.2,29.96,WNW,296,0.0,1.2,86,0.00,,,0.00,0.0,WeatherDisplay:10.37,2013-04-25 11:57:00,
2013-04-25 05:02:00,49.5,45.5,29.96,West,269,0.4,2.3,86,0.00,,,0.00,0.0,WeatherDisplay:10.37,2013-04-25 12:02:00,
2013-04-25 05:07:00,49.6,45.9,29.96,West,268,0.0,0.0,87,0.00,,,0.00,0.0,WeatherDisplay:10.37,2013-04-25 12:07:00,
2013-04-25 05:12:00,50.3,46.9,29.96,South,187,3.8,3.8,88,0.00,,,0.00,0.0,WeatherDisplay:10.37,2013-04-25 12:12:00,
2013-04-25 05:17:00,51.3,47.6,29.96,South,188,2.2,3.5,87,0.00,,,0.00,0.0,WeatherDisplay:10.37,2013-04-25 12:17:00,
2013-04-25 05:22:00,50.9,46.6,29.97,South,188,0.2,1.0,85,0.00,,,0.00,0.0,WeatherDisplay:10.37,2013-04-25 12:22:00,
2013-04-25 05:27:00,50.2,45.9,29.97,South,189,0.1,2.3,85,0.00,,,0.00,0.0,WeatherDisplay:10.37,2013-04-25 12:27:00,
2013-04-25 05:32:00,49.8,45.8,29.97,South,188,0.0,1.2,86,0.00,,,0.00,0.0,WeatherDisplay:10.37,2013-04-25 12:32:00,
2013-04-25 05:37:00,49.9,46.2,29.97,South,189,0.5,1.2,87,0.00,,,0.00,0.0,WeatherDisplay:10.37,2013-04-25 12:37:00,
2013-04-25 05:42:00,50.2,46.8,29.97,SW,214,0.4,3.5,88,0.00,,,0.00,0.0,WeatherDisplay:10.37,2013-04-25 12:42:00,
2013-04-25 05:47:00,50.8,47.4,29.97,SSW,207,0.0,1.2,88,0.00,,,0.00,0.0,WeatherDisplay:10.37,2013-04-25 12:47:00,
2013-04-25 05:52:00,50.9,47.2,29.97,SSW,207,0.0,0.0,87,0.00,,,0.00,0.0,WeatherDisplay:10.37,2013-04-25 12:52:00,
2013-04-25 05:57:00,50.8,47.1,29.98,SSW,207,0.0,0.0,87,0.00,,,0.00,0.0,WeatherDisplay:10.37,2013-04-25 12:57:00,
2013-04-25 06:02:00,50.8,47.1,29.97,SSW,207,0.0,0.0,87,0.00,,,0.00,0.0,WeatherDisplay:10.37,2013-04-25 13:02:00,
2013-04-25 06:07:00,50.8,47.1,29.97,SSW,207,0.0,0.0,87,0.00,,,0.00,0.0,WeatherDisplay:10.37,2013-04-25 13:07:00,
2013-04-25 06:12:00,51.0,47.3,29.97,SSW,207,0.0,0.0,87,0.00,,,0.00,0.0,WeatherDisplay:10.37,2013-04-25 13:12:00,
2013-04-25 06:17:00,51.2,47.5,29.97,SSW,207,0.0,0.0,87,0.00,,,0.00,0.0,WeatherDisplay:10.37,2013-04-25 13:17:00,
2013-04-25 06:22:00,51.4,47.7,29.98,SSW,207,0.0,0.0,87,0.00,,,0.00,0.0,WeatherDisplay:10.37,2013-04-25 13:22:00,
2013-04-25 06:27:00,51.4,47.4,29.98,SSW,207,0.0,0.0,86,0.00,,,0.00,0.0,WeatherDisplay:10.37,2013-04-25 13:27:00,
2013-04-25 06:32:00,51.5,47.5,29.98,SSW,207,0.0,1.2,86,0.00,,,0.00,0.0,WeatherDisplay:10.37,2013-04-25 13:32:00,
2013-04-25 06:37:00,51.4,47.4,29.98,SSW,207,0.3,1.2,86,0.00,,,0.00,0.0,WeatherDisplay:10.37,2013-04-25 13:37:00,
2013-04-25 06:42:00,51.3,47.3,29.98,SSW,207,1.0,2.3,86,0.00,,,0.00,7.0,WeatherDisplay:10.37,2013-04-25 13:42:00,
2013-04-25 06:47:00,51.4,47.4,29.99,SSW,207,0.0,0.0,86,0.00,,,0.00,12.0,WeatherDisplay:10.37,2013-04-25 13:47:00,
2013-04-25 06:52:00,51.5,47.5,29.99,SSW,208,0.0,0.0,86,0.00,,,0.00,14.0,WeatherDisplay:10.37,2013-04-25 13:52:00,
2013-04-25 06:57:00,51.6,47.5,29.99,SSW,207,0.0,0.0,86,0.00,,,0.00,14.0,WeatherDisplay:10.37,2013-04-25 13:57:00,
2013-04-25 07:02:00,51.7,47.6,30.00,SSW,208,0.3,1.2,86,0.00,CLR,,0.00,14.0,WeatherDisplay:10.37,2013-04-25 14:02:00,
2013-04-25 07:07:00,51.8,47.7,30.00,SSW,207,0.0,0.0,86,0.00,SCT,,0.00,16.0,WeatherDisplay:10.37,2013-04-25 14:07:00,
2013-04-25 07:12:00,51.9,47.8,30.00,SSW,207,0.0,0.0,86,0.00,SCT,,0.00,21.0,WeatherDisplay:10.37,2013-04-25 14:12:00,
2013-04-25 07:17:00,52.2,47.8,30.00,SSW,207,1.0,0.0,85,0.00,SCT,,0.00,26.0,WeatherDisplay:10.37,2013-04-25 14:17:00,
2013-04-25 07:22:00,52.2,47.8,30.00,SSW,207,0.0,0.0,85,0.00,SCT,,0.00,33.0,WeatherDisplay:10.37,2013-04-25 14:22:00,
2013-04-25 07:27:00,52.4,48.0,30.00,SSW,208,0.0,0.0,85,0.00,SCT,,0.00,39.0,WeatherDisplay:10.37,2013-04-25 14:27:00,
2013-04-25 07:32:00,52.5,48.1,30.00,SSW,207,0.0,0.0,85,0.00,SCT,,0.00,44.0,WeatherDisplay:10.37,2013-04-25 14:32:00,
2013-04-25 07:37:00,52.5,48.1,30.00,SSW,207,0.0,0.0,85,0.00,SCT,,0.00,47.0,WeatherDisplay:10.37,2013-04-25 14:37:00,
2013-04-25 07:42:00,52.6,48.2,30.01,SSW,208,0.0,0.0,85,0.00,BKN,,0.00,47.0,WeatherDisplay:10.37,2013-04-25 14:42:00,
2013-04-25 07:47:00,52.8,48.1,30.01,SSW,207,3.0,4.6,84,0.00,BKN,,0.00,47.0,WeatherDisplay:10.37,2013-04-25 14:47:00,
2013-04-25 07:52:00,52.8,48.1,30.01,SSW,207,0.1,0.0,84,0.00,BKN,,0.00,56.0,WeatherDisplay:10.37,2013-04-25 14:52:00,
2013-04-25 07:57:00,52.8,48.1,30.01,SSW,207,0.3,2.3,84,0.00,BKN,,0.00,56.0,WeatherDisplay:10.37,2013-04-25 14:57:00,
2013-04-25 08:02:00,52.8,48.1,30.01,SSW,207,0.0,1.2,84,0.00,BKN,,0.00,60.0,WeatherDisplay:10.37,2013-04-25 15:02:00,
2013-04-25 08:07:00,52.7,48.0,30.01,SSW,203,2.0,3.5,84,0.00,BKN,,0.00,60.0,WeatherDisplay:10.37,2013-04-25 15:07:00,
2013-04-25 08:12:00,52.7,48.0,30.02,SSW,203,0.4,2.3,84,0.00,BKN,,0.00,65.0,WeatherDisplay:10.37,2013-04-25 15:12:00,
2013-04-25 08:17:00,52.7,48.0,30.01,SSW,203,0.0,1.0,84,0.00,BKN,,0.00,65.0,WeatherDisplay:10.37,2013-04-25 15:17:00,
2013-04-25 08:22:00,52.8,48.1,30.01,SSW,203,1.8,3.5,84,0.00,BKN,,0.00,76.0,WeatherDisplay:10.37,2013-04-25 15:22:00,
2013-04-25 08:27:00,53.0,48.0,30.01,SSW,203,1.3,3.5,83,0.00,BKN,,0.00,93.0,WeatherDisplay:10.37,2013-04-25 15:27:00,
2013-04-25 08:32:00,53.0,48.0,30.01,South,186,4.3,5.8,83,0.00,BKN,,0.00,86.0,WeatherDisplay:10.37,2013-04-25 15:32:00,
2013-04-25 08:37:00,53.0,48.0,30.02,South,184,4.8,6.9,83,0.00,BKN,,0.00,90.0,WeatherDisplay:10.37,2013-04-25 15:37:00,
2013-04-25 08:42:00,53.0,48.0,30.02,SSW,194,2.2,9.2,83,0.00,BKN,,0.00,104.0,WeatherDisplay:10.37,2013-04-25 15:42:00,
2013-04-25 08:47:00,53.0,48.0,30.02,South,191,2.6,3.5,83,0.00,BKN,,0.00,113.0,WeatherDisplay:10.37,2013-04-25 15:47:00,
2013-04-25 08:52:00,53.1,48.1,30.02,South,185,2.7,4.6,83,0.00,BKN,,0.00,109.0,WeatherDisplay:10.37,2013-04-25 15:52:00,
2013-04-25 08:57:00,53.3,47.9,30.03,South,184,0.1,2.3,82,0.00,BKN,,0.00,104.0,WeatherDisplay:10.37,2013-04-25 15:57:00,
2013-04-25 09:02:00,53.4,48.0,30.03,South,185,1.3,3.5,82,0.00,BKN,,0.00,107.0,WeatherDisplay:10.37,2013-04-25 16:02:00,
2013-04-25 09:07:00,53.7,48.3,30.02,South,185,3.3,4.6,82,0.00,BKN,,0.00,113.0,WeatherDisplay:10.37,2013-04-25 16:07:00,
2013-04-25 09:12:00,53.7,48.3,30.02,South,184,2.4,3.5,82,0.00,BKN,,0.00,121.0,WeatherDisplay:10.37,2013-04-25 16:12:00,
2013-04-25 09:17:00,53.8,48.4,30.03,South,185,0.5,2.3,82,0.00,BKN,,0.00,123.0,WeatherDisplay:10.37,2013-04-25 16:17:00,
2013-04-25 09:22:00,53.9,48.5,30.03,South,184,4.7,6.9,82,0.00,BKN,,0.00,134.0,WeatherDisplay:10.37,2013-04-25 16:22:00,
2013-04-25 09:27:00,53.8,48.1,30.03,South,191,2.2,3.5,81,0.00,BKN,,0.00,142.0,WeatherDisplay:10.37,2013-04-25 16:27:00,
2013-04-25 09:32:00,53.7,48.0,30.03,South,189,2.3,9.2,81,0.00,BKN,,0.00,156.0,WeatherDisplay:10.37,2013-04-25 16:32:00,
2013-04-25 09:37:00,53.9,48.2,30.03,SSW,202,6.5,9.2,81,0.00,BKN,,0.00,163.0,WeatherDisplay:10.37,2013-04-25 16:37:00,
2013-04-25 09:42:00,53.8,48.1,30.04,South,185,6.8,10.4,81,0.00,BKN,,0.00,163.0,WeatherDisplay:10.37,2013-04-25 16:42:00,
2013-04-25 09:47:00,53.7,48.0,30.04,South,190,5.4,9.2,81,0.00,BKN,,0.00,167.0,WeatherDisplay:10.37,2013-04-25 16:47:00,
2013-04-25 09:52:00,53.8,48.4,30.04,South,191,2.7,3.5,82,0.00,BKN,,0.00,167.0,WeatherDisplay:10.37,2013-04-25 16:52:00,
2013-04-25 09:57:00,54.0,48.3,30.04,South,191,7.6,7.6,81,0.00,BKN,,0.00,179.0,WeatherDisplay:10.37,2013-04-25 16:57:00,
2013-04-25 10:02:00,54.0,48.3,30.04,South,180,5.7,9.2,81,0.00,BKN,,0.00,185.0,WeatherDisplay:10.37,2013-04-25 17:02:00,
2013-04-25 10:07:00,54.2,48.5,30.04,South,184,3.0,5.8,81,0.00,BKN,,0.00,178.0,WeatherDisplay:10.37,2013-04-25 17:07:00,
2013-04-25 10:12:00,54.2,48.5,30.05,South,176,6.9,9.2,81,0.00,BKN,,0.00,171.0,WeatherDisplay:10.37,2013-04-25 17:12:00,
2013-04-25 10:17:00,54.2,48.5,30.05,SSW,193,3.0,6.9,81,0.00,BKN,,0.00,183.0,WeatherDisplay:10.37,2013-04-25 17:17:00,
2013-04-25 10:22:00,54.3,48.3,30.05,South,190,5.4,6.9,80,0.00,BKN,,0.00,188.0,WeatherDisplay:10.37,2013-04-25 17:22:00,
2013-04-25 10:27:00,54.4,48.4,30.05,South,190,2.4,3.5,80,0.00,BKN,,0.00,186.0,WeatherDisplay:10.37,2013-04-25 17:27:00,
2013-04-25 10:32:00,54.5,48.8,30.05,South,190,1.4,3.5,81,0.00,BKN,,0.00,192.0,WeatherDisplay:10.37,2013-04-25 17:32:00,
2013-04-25 10:37:00,54.8,48.7,30.05,South,190,3.6,6.9,80,0.00,BKN,,0.00,192.0,WeatherDisplay:10.37,2013-04-25 17:37:00,
2013-04-25 10:42:00,55.0,48.9,30.05,South,186,3.0,3.5,80,0.00,BKN,,0.00,200.0,WeatherDisplay:10.37,2013-04-25 17:42:00,
2013-04-25 10:47:00,54.8,48.7,30.05,South,191,0.6,3.5,80,0.00,BKN,,0.00,207.0,WeatherDisplay:10.37,2013-04-25 17:47:00,
2013-04-25 10:52:00,55.0,48.9,30.05,South,188,4.8,4.8,80,0.00,BKN,,0.00,227.0,WeatherDisplay:10.37,2013-04-25 17:52:00,
2013-04-25 10:57:00,54.9,48.8,30.05,South,184,6.3,8.1,80,0.00,BKN,,0.00,236.0,WeatherDisplay:10.37,2013-04-25 17:57:00,
2013-04-25 11:02:00,55.0,48.9,30.05,South,184,6.8,9.2,80,0.00,BKN,,0.00,248.0,WeatherDisplay:10.37,2013-04-25 18:02:00,
2013-04-25 11:07:00,55.1,48.7,30.06,South,190,3.8,6.9,79,0.00,BKN,,0.00,257.0,WeatherDisplay:10.37,2013-04-25 18:07:00,
2013-04-25 11:12:00,55.4,49.0,30.06,South,180,4.7,6.9,79,0.00,BKN,,0.00,262.0,WeatherDisplay:10.37,2013-04-25 18:12:00,
2013-04-25 11:17:00,55.4,49.0,30.06,South,182,3.1,6.9,79,0.00,BKN,,0.00,265.0,WeatherDisplay:10.37,2013-04-25 18:17:00,
2013-04-25 11:22:00,55.3,48.9,30.06,South,186,5.3,6.9,79,0.00,BKN,,0.00,260.0,WeatherDisplay:10.37,2013-04-25 18:22:00,
2013-04-25 11:27:00,55.1,48.7,30.05,South,176,4.9,8.1,79,0.00,BKN,,0.00,272.0,WeatherDisplay:10.37,2013-04-25 18:27:00,
2013-04-25 11:32:00,55.2,48.8,30.05,South,187,4.7,5.8,79,0.00,BKN,,0.00,299.0,WeatherDisplay:10.37,2013-04-25 18:32:00,
2013-04-25 11:37:00,55.4,49.0,30.05,South,188,7.6,10.4,79,0.00,BKN,,0.00,334.0,WeatherDisplay:10.37,2013-04-25 18:37:00,
2013-04-25 11:42:00,55.4,49.0,30.05,South,184,5.5,8.0,79,0.00,BKN,,0.00,355.0,WeatherDisplay:10.37,2013-04-25 18:42:00,
2013-04-25 11:47:00,55.5,49.1,30.05,South,190,6.4,8.1,79,0.00,BKN,,0.00,369.0,WeatherDisplay:10.37,2013-04-25 18:47:00,
2013-04-25 11:52:00,55.6,49.2,30.05,South,191,4.9,11.5,79,0.00,BKN,,0.00,383.0,WeatherDisplay:10.37,2013-04-25 18:52:00,
2013-04-25 11:57:00,55.6,48.8,30.06,South,178,7.1,11.5,78,0.00,BKN,,0.00,367.0,WeatherDisplay:10.37,2013-04-25 18:57:00,
2013-04-25 12:02:00,55.8,49.4,30.06,SSW,196,3.5,11.5,79,0.00,BKN,,0.00,355.0,WeatherDisplay:10.37,2013-04-25 19:02:00,
2013-04-25 12:07:00,55.9,49.1,30.06,South,190,7.5,11.5,78,0.00,BKN,,0.00,360.0,WeatherDisplay:10.37,2013-04-25 19:07:00,
2013-04-25 12:12:00,55.7,49.3,30.06,South,188,3.9,8.1,79,0.00,BKN,,0.00,353.0,WeatherDisplay:10.37,2013-04-25 19:12:00,
2013-04-25 12:17:00,55.6,48.8,30.06,South,188,8.0,10.4,78,0.00,BKN,,0.00,355.0,WeatherDisplay:10.37,2013-04-25 19:17:00,
2013-04-25 12:22:00,55.4,49.0,30.05,South,173,9.2,13.8,79,0.00,BKN,,0.00,352.0,WeatherDisplay:10.37,2013-04-25 19:22:00,
2013-04-25 12:27:00,55.4,49.0,30.05,South,184,4.4,6.9,79,0.00,BKN,,0.00,383.0,WeatherDisplay:10.37,2013-04-25 19:27:00,
2013-04-25 12:32:00,56.0,49.6,30.05,SSW,198,6.5,11.5,79,0.00,BKN,,0.00,376.0,WeatherDisplay:10.37,2013-04-25 19:32:00,
2013-04-25 12:37:00,56.2,49.4,30.05,SSW,198,5.6,8.1,78,0.00,BKN,,0.00,408.0,WeatherDisplay:10.37,2013-04-25 19:37:00,
2013-04-25 12:42:00,56.3,49.2,30.05,South,190,6.9,11.5,77,0.00,BKN,,0.00,457.0,WeatherDisplay:10.37,2013-04-25 19:42:00,
2013-04-25 12:47:00,56.9,49.4,30.05,SSW,192,6.1,9.2,76,0.00,BKN,,0.00,494.0,WeatherDisplay:10.37,2013-04-25 19:47:00,
2013-04-25 12:52:00,57.0,49.2,30.05,SSW,196,3.8,7.0,75,0.00,SCT,,0.00,580.0,WeatherDisplay:10.37,2013-04-25 19:52:00,
2013-04-25 12:57:00,57.6,49.4,30.05,South,191,4.7,6.9,74,0.00,SCT,,0.00,568.0,WeatherDisplay:10.37,2013-04-25 19:57:00,
2013-04-25 13:02:00,57.6,49.4,30.05,South,174,6.1,9.2,74,0.00,SCT,,0.00,661.0,WeatherDisplay:10.37,2013-04-25 20:02:00,
2013-04-25 13:07:00,58.0,49.4,30.05,SSW,194,2.8,6.9,73,0.00,SCT,,0.00,677.0,WeatherDisplay:10.37,2013-04-25 20:07:00,
2013-04-25 13:12:00,58.0,49.4,30.05,South,190,3.7,9.2,73,0.00,SCT,,0.00,613.0,WeatherDisplay:10.37,2013-04-25 20:12:00,
2013-04-25 13:17:00,58.2,49.2,30.05,SSE,160,6.5,11.5,72,0.00,SCT,,0.00,589.0,WeatherDisplay:10.37,2013-04-25 20:17:00,
2013-04-25 13:22:00,58.3,49.3,30.05,South,189,2.2,8.1,72,0.00,SCT,,0.00,540.0,WeatherDisplay:10.37,2013-04-25 20:22:00,
2013-04-25 13:27:00,58.4,49.4,30.06,South,185,3.3,3.5,72,0.00,SCT,,0.00,573.0,WeatherDisplay:10.37,2013-04-25 20:27:00,
2013-04-25 13:32:00,58.6,50.0,30.06,East,90,3.5,6.9,73,0.00,SCT,,0.00,575.0,WeatherDisplay:10.37,2013-04-25 20:32:00,
2013-04-25 13:37:00,59.2,49.8,30.06,SE,124,3.0,4.6,71,0.00,SCT,,0.00,547.0,WeatherDisplay:10.37,2013-04-25 20:37:00,
2013-04-25 13:42:00,60.0,50.9,30.06,SE,126,0.3,1.2,72,0.00,SCT,,0.00,571.0,WeatherDisplay:10.37,2013-04-25 20:42:00,
2013-04-25 13:47:00,61.0,51.1,30.06,South,169,1.4,1.4,70,0.00,SCT,,0.00,606.0,WeatherDisplay:10.37,2013-04-25 20:47:00,
2013-04-25 13:52:00,61.1,50.8,30.06,SW,228,1.2,3.5,69,0.00,SCT,,0.00,635.0,WeatherDisplay:10.37,2013-04-25 20:52:00,
2013-04-25 13:57:00,60.8,50.6,30.06,SW,223,0.8,2.3,69,0.00,SCT,,0.00,636.0,WeatherDisplay:10.37,2013-04-25 20:57:00,
2013-04-25 14:02:00,61.0,50.4,30.06,East,98,2.5,3.5,68,0.00,SCT,,0.00,643.0,WeatherDisplay:10.37,2013-04-25 21:02:00,
2013-04-25 14:07:00,60.7,50.1,30.06,SE,138,0.5,3.5,68,0.00,SCT,,0.00,605.0,WeatherDisplay:10.37,2013-04-25 21:07:00,
2013-04-25 14:12:00,60.9,49.5,30.06,South,180,3.7,8.1,66,0.00,SCT,,0.00,689.0,WeatherDisplay:10.37,2013-04-25 21:12:00,
2013-04-25 14:17:00,59.9,49.3,30.06,SSW,209,4.3,6.9,68,0.00,SCT,,0.00,633.0,WeatherDisplay:10.37,2013-04-25 21:17:00,
2013-04-25 14:22:00,59.5,48.9,30.06,SSE,157,2.1,9.2,68,0.00,SCT,,0.00,633.0,WeatherDisplay:10.37,2013-04-25 21:22:00,
2013-04-25 14:27:00,60.1,49.5,30.06,SSE,161,3.9,8.1,68,0.00,FEW,,0.00,828.0,WeatherDisplay:10.37,2013-04-25 21:27:00,
2013-04-25 14:32:00,60.5,49.9,30.06,East,101,1.1,3.5,68,0.00,CLR,,0.00,882.0,WeatherDisplay:10.37,2013-04-25 21:32:00,
2013-04-25 14:37:00,61.6,49.7,30.06,SSE,164,2.5,4.6,65,0.00,CLR,,0.00,875.0,WeatherDisplay:10.37,2013-04-25 21:37:00,
2013-04-25 14:42:00,61.1,49.2,30.06,ESE,105,2.5,4.0,65,0.00,CLR,,0.00,916.0,WeatherDisplay:10.37,2013-04-25 21:42:00,
2013-04-25 14:47:00,62.3,50.4,30.06,South,182,4.0,5.8,65,0.00,CLR,,0.00,905.0,WeatherDisplay:10.37,2013-04-25 21:47:00,
2013-04-25 14:52:00,61.3,49.8,30.06,North,11,2.4,3.5,66,0.00,CLR,,0.00,888.0,WeatherDisplay:10.37,2013-04-25 21:52:00,
2013-04-25 14:57:00,62.7,50.8,30.06,North,360,0.1,1.2,65,0.00,CLR,,0.00,875.0,WeatherDisplay:10.37,2013-04-25 21:57:00,
2013-04-25 15:02:00,63.0,49.8,30.06,North,355,0.3,1.2,62,0.00,CLR,,0.00,870.0,WeatherDisplay:10.37,2013-04-25 22:02:00,
2013-04-25 15:07:00,63.8,51.0,30.06,East,79,1.0,1.2,63,0.00,CLR,,0.00,865.0,WeatherDisplay:10.37,2013-04-25 22:07:00,
2013-04-25 15:12:00,64.7,50.9,30.05,NNE,13,4.4,5.8,61,0.00,CLR,,0.00,849.0,WeatherDisplay:10.37,2013-04-25 22:12:00,
2013-04-25 15:17:00,64.4,50.2,30.05,NNE,26,3.5,6.9,60,0.00,CLR,,0.00,837.0,WeatherDisplay:10.37,2013-04-25 22:17:00,
2013-04-25 15:22:00,63.7,50.0,30.05,NE,38,2.1,3.5,61,0.00,CLR,,0.00,830.0,WeatherDisplay:10.37,2013-04-25 22:22:00,
2013-04-25 15:27:00,63.4,50.1,30.05,WNW,290,2.7,4.6,62,0.00,CLR,,0.00,817.0,WeatherDisplay:10.37,2013-04-25 22:27:00,
2013-04-25 15:32:00,64.0,50.3,30.05,NNE,26,3.2,5.8,61,0.00,CLR,,0.00,803.0,WeatherDisplay:10.37,2013-04-25 22:32:00,
2013-04-25 15:37:00,64.3,50.1,30.05,NNE,33,3.1,6.9,60,0.00,CLR,,0.00,791.0,WeatherDisplay:10.37,2013-04-25 22:37:00,
2013-04-25 15:42:00,64.6,50.8,30.05,NNE,19,1.3,4.6,61,0.00,CLR,,0.00,780.0,WeatherDisplay:10.37,2013-04-25 22:42:00,
2013-04-25 15:47:00,64.1,50.4,30.05,NNE,17,2.0,5.8,61,0.00,CLR,,0.00,768.0,WeatherDisplay:10.37,2013-04-25 22:47:00,
2013-04-25 15:52:00,64.1,50.4,30.05,West,280,2.3,3.5,61,0.00,CLR,,0.00,756.0,WeatherDisplay:10.37,2013-04-25 22:52:00,
2013-04-25 15:57:00,63.3,50.1,30.05,NNE,23,5.1,5.1,62,0.00,CLR,,0.00,742.0,WeatherDisplay:10.37,2013-04-25 22:57:00,
2013-04-25 16:02:00,62.9,49.7,30.05,NNE,25,5.2,8.1,62,0.00,CLR,,0.00,726.0,WeatherDisplay:10.37,2013-04-25 23:02:00,
2013-04-25 16:07:00,62.9,50.1,30.05,NNE,16,4.0,8.1,63,0.00,CLR,,0.00,707.0,WeatherDisplay:10.37,2013-04-25 23:07:00,
2013-04-25 16:12:00,63.3,50.1,30.05,NNE,14,3.0,4.6,62,0.00,CLR,,0.00,698.0,WeatherDisplay:10.37,2013-04-25 23:12:00,
2013-04-25 16:17:00,63.6,50.3,30.05,NNE,16,2.3,5.8,62,0.00,CLR,,0.00,680.0,WeatherDisplay:10.37,2013-04-25 23:17:00,
2013-04-25 16:22:00,63.3,50.1,30.05,NNE,19,2.6,4.6,62,0.00,CLR,,0.00,664.0,WeatherDisplay:10.37,2013-04-25 23:22:00,
2013-04-25 16:27:00,63.5,50.2,30.05,NNE,32,3.1,5.0,62,0.00,CLR,,0.00,650.0,WeatherDisplay:10.37,2013-04-25 23:27:00,
2013-04-25 16:32:00,63.3,50.1,30.05,NE,36,2.3,5.0,62,0.00,CLR,,0.00,635.0,WeatherDisplay:10.37,2013-04-25 23:32:00,
2013-04-25 16:37:00,63.1,49.9,30.05,NNE,19,4.0,5.8,62,0.00,CLR,,0.00,619.0,WeatherDisplay:10.37,2013-04-25 23:37:00,
2013-04-25 16:42:00,63.0,50.2,30.05,NNE,19,2.4,3.5,63,0.00,CLR,,0.00,605.0,WeatherDisplay:10.37,2013-04-25 23:42:00,
2013-04-25 16:47:00,62.9,49.7,30.05,NNE,30,2.1,5.0,62,0.00,CLR,,0.00,587.0,WeatherDisplay:10.37,2013-04-25 23:47:00,
2013-04-25 16:52:00,62.4,49.2,30.05,North,11,2.7,3.5,62,0.00,CLR,,0.00,566.0,WeatherDisplay:10.37,2013-04-25 23:52:00,
2013-04-25 16:57:00,62.1,49.8,30.04,North,349,1.5,4.0,64,0.00,CLR,,0.00,547.0,WeatherDisplay:10.37,2013-04-25 23:57:00,
2013-04-25 17:02:00,62.4,49.6,30.05,North,10,4.1,4.6,63,0.00,CLR,,0.00,536.0,WeatherDisplay:10.37,2013-04-26 00:02:00,
2013-04-25 17:07:00,62.2,49.4,30.05,NNW,342,2.3,3.5,63,0.00,CLR,,0.00,519.0,WeatherDisplay:10.37,2013-04-26 00:07:00,
2013-04-25 17:12:00,61.6,49.3,30.05,NNE,17,0.7,5.8,64,0.00,CLR,,0.00,497.0,WeatherDisplay:10.37,2013-04-26 00:12:00,
2013-04-25 17:17:00,61.5,49.6,30.05,WNW,296,1.5,3.5,65,0.00,CLR,,0.00,483.0,WeatherDisplay:10.37,2013-04-26 00:17:00,
2013-04-25 17:22:00,61.1,49.2,30.05,NE,38,3.1,5.8,65,0.00,CLR,,0.00,464.0,WeatherDisplay:10.37,2013-04-26 00:22:00,
2013-04-25 17:27:00,61.1,49.2,30.05,NNE,15,2.2,4.6,65,0.00,CLR,,0.00,445.0,WeatherDisplay:10.37,2013-04-26 00:27:00,
2013-04-25 17:32:00,60.9,49.1,30.05,NNE,15,2.0,4.6,65,0.00,CLR,,0.00,425.0,WeatherDisplay:10.37,2013-04-26 00:32:00,
2013-04-25 17:37:00,60.6,48.8,30.05,North,355,0.8,3.5,65,0.00,CLR,,0.00,408.0,WeatherDisplay:10.37,2013-04-26 00:37:00,
2013-04-25 17:42:00,60.5,48.7,30.05,NNE,20,2.9,3.5,65,0.00,FEW,,0.00,392.0,WeatherDisplay:10.37,2013-04-26 00:42:00,
2013-04-25 17:47:00,60.5,48.7,30.06,NNE,14,2.7,3.5,65,0.00,FEW,,0.00,371.0,WeatherDisplay:10.37,2013-04-26 00:47:00,
2013-04-25 17:52:00,60.3,48.9,30.06,NNE,29,1.8,3.5,66,0.00,FEW,,0.00,353.0,WeatherDisplay:10.37,2013-04-26 00:52:00,
2013-04-25 17:57:00,60.0,48.6,30.05,NNE,28,3.7,6.9,66,0.00,FEW,,0.00,334.0,WeatherDisplay:10.37,2013-04-26 00:57:00,
2013-04-25 18:02:00,59.8,48.4,30.05,NNE,24,0.4,2.3,66,0.00,FEW,,0.00,318.0,WeatherDisplay:10.37,2013-04-26 01:02:00,
2013-04-25 18:07:00,59.4,48.4,30.06,NNE,17,0.8,2.3,67,0.00,FEW,,0.00,299.0,WeatherDisplay:10.37,2013-04-26 01:07:00,
2013-04-25 18:12:00,58.7,48.2,30.06,NW,310,1.3,3.5,68,0.00,BKN,,0.00,60.0,WeatherDisplay:10.37,2013-04-26 01:12:00,
2013-04-25 18:17:00,58.1,48.0,30.06,NW,311,0.0,0.0,69,0.00,BKN,,0.00,62.0,WeatherDisplay:10.37,2013-04-26 01:17:00,
2013-04-25 18:22:00,58.0,47.9,30.05,NW,306,1.4,3.5,69,0.00,BKN,,0.00,105.0,WeatherDisplay:10.37,2013-04-26 01:22:00,
2013-04-25 18:27:00,57.8,48.1,30.06,North,355,0.5,3.5,70,0.00,BKN,,0.00,142.0,WeatherDisplay:10.37,2013-04-26 01:27:00,
2013-04-25 18:32:00,57.4,47.7,30.06,NNE,13,2.3,3.5,70,0.00,BKN,,0.00,90.0,WeatherDisplay:10.37,2013-04-26 01:32:00,
2013-04-25 18:37:00,57.0,47.3,30.06,NNE,13,0.3,1.2,70,0.00,BKN,,0.00,113.0,WeatherDisplay:10.37,2013-04-26 01:37:00,
2013-04-25 18:42:00,57.0,47.7,30.06,WNW,290,0.2,2.3,71,0.00,BKN,,0.00,105.0,WeatherDisplay:10.37,2013-04-26 01:42:00,
2013-04-25 18:47:00,56.7,47.8,30.06,North,360,0.0,0.0,72,0.00,BKN,,0.00,53.0,WeatherDisplay:10.37,2013-04-26 01:47:00,
2013-04-25 18:52:00,56.4,47.5,30.06,North,360,0.5,2.0,72,0.00,BKN,,0.00,39.0,WeatherDisplay:10.37,2013-04-26 01:52:00,
2013-04-25 18:57:00,56.0,47.5,30.06,North,360,0.1,1.2,73,0.00,BKN,,0.00,37.0,WeatherDisplay:10.37,2013-04-26 01:57:00,
2013-04-25 19:02:00,55.5,47.0,30.06,NW,318,0.0,1.2,73,0.00,BKN,,0.00,35.0,WeatherDisplay:10.37,2013-04-26 02:02:00,
2013-04-25 19:07:00,55.2,47.1,30.06,West,281,1.1,2.3,74,0.00,BKN,,0.00,32.0,WeatherDisplay:10.37,2013-04-26 02:07:00,
2013-04-25 19:12:00,54.8,47.0,30.06,West,281,0.4,3.5,75,0.00,BKN,,0.00,30.0,WeatherDisplay:10.37,2013-04-26 02:12:00,
2013-04-25 19:17:00,54.5,46.7,30.06,WNW,282,0.0,2.3,75,0.00,BKN,,0.00,26.0,WeatherDisplay:10.37,2013-04-26 02:17:00,
2013-04-25 19:22:00,54.1,46.7,30.06,WNW,282,0.1,1.2,76,0.00,BKN,,0.00,23.0,WeatherDisplay:10.37,2013-04-26 02:22:00,
2013-04-25 19:27:00,53.8,46.4,30.06,WNW,282,0.7,1.2,76,0.00,BKN,,0.00,19.0,WeatherDisplay:10.37,2013-04-26 02:27:00,
2013-04-25 19:32:00,53.7,46.7,30.07,WNW,282,0.1,1.2,77,0.00,BKN,,0.00,16.0,WeatherDisplay:10.37,2013-04-26 02:32:00,
2013-04-25 19:37:00,53.4,46.4,30.07,West,281,0.8,2.3,77,0.00,BKN,,0.00,12.0,WeatherDisplay:10.37,2013-04-26 02:37:00,
2013-04-25 19:42:00,53.1,46.4,30.07,WNW,282,0.0,0.0,78,0.00,BKN,,0.00,7.0,WeatherDisplay:10.37,2013-04-26 02:42:00,
2013-04-25 19:47:00,52.8,46.5,30.07,WNW,282,0.5,3.0,79,0.00,BKN,,0.00,5.0,WeatherDisplay:10.37,2013-04-26 02:47:00,
2013-04-25 19:52:00,52.6,46.3,30.07,WNW,282,0.0,1.2,79,0.00,,,0.00,0.0,WeatherDisplay:10.37,2013-04-26 02:52:00,
2013-04-25 19:57:00,52.3,46.3,30.07,WNW,282,0.0,0.0,80,0.00,,,0.00,0.0,WeatherDisplay:10.37,2013-04-26 02:57:00,
2013-04-25 20:02:00,52.0,46.0,30.07,WNW,282,0.0,0.0,80,0.00,,,0.00,0.0,WeatherDisplay:10.37,2013-04-26 03:02:00,
2013-04-25 20:07:00,51.7,46.1,30.08,West,281,0.0,1.2,81,0.00,,,0.00,0.0,WeatherDisplay:10.37,2013-04-26 03:07:00,
2013-04-25 20:12:00,51.5,46.2,30.08,WNW,282,0.4,2.3,82,0.00,,,0.00,0.0,WeatherDisplay:10.37,2013-04-26 03:12:00,
2013-04-25 20:17:00,51.5,46.2,30.08,West,281,0.0,0.0,82,0.00,,,0.00,0.0,WeatherDisplay:10.37,2013-04-26 03:17:00,
2013-04-25 20:22:00,51.3,46.0,30.08,WNW,282,0.8,1.2,82,0.00,,,0.00,0.0,WeatherDisplay:10.37,2013-04-26 03:22:00,
2013-04-25 20:27:00,51.0,45.7,30.08,WNW,282,0.0,0.0,82,0.00,,,0.00,0.0,WeatherDisplay:10.37,2013-04-26 03:27:00,
2013-04-25 20:32:00,50.7,45.7,30.08,WNW,282,0.0,0.0,83,0.00,,,0.00,0.0,WeatherDisplay:10.37,2013-04-26 03:32:00,
2013-04-25 20:37:00,50.5,45.5,30.08,WNW,282,0.0,0.0,83,0.00,,,0.00,0.0,WeatherDisplay:10.37,2013-04-26 03:37:00,
2013-04-25 20:42:00,50.3,45.6,30.08,West,281,0.0,0.0,84,0.00,,,0.00,0.0,WeatherDisplay:10.37,2013-04-26 03:42:00,
2013-04-25 20:47:00,50.2,45.9,30.09,WNW,282,0.0,0.0,85,0.00,,,0.00,0.0,WeatherDisplay:10.37,2013-04-26 03:47:00,
2013-04-25 20:52:00,50.0,45.4,30.09,WNW,282,0.0,0.0,84,0.00,,,0.00,0.0,WeatherDisplay:10.37,2013-04-26 03:52:00,
2013-04-25 20:57:00,49.7,45.1,30.09,West,281,0.0,0.0,84,0.00,,,0.00,0.0,WeatherDisplay:10.37,2013-04-26 03:57:00,
2013-04-25 21:01:00,49.7,45.4,30.09,WNW,282,0.0,0.0,85,0.00,,,0.00,0.0,WeatherDisplay:10.37,2013-04-26 04:01:00,
2013-04-25 21:02:00,49.7,45.4,30.09,West,281,0.0,0.0,85,0.00,,,0.00,0.0,WeatherDisplay:10.37,2013-04-26 04:02:00,
2013-04-25 21:04:00,49.6,45.3,30.09,WNW,282,0.0,0.0,85,0.00,,,0.00,0.0,WeatherDisplay:10.37,2013-04-26 04:04:00,
2013-04-25 21:05:00,49.6,45.3,30.09,WNW,282,0.0,0.0,85,0.00,,,0.00,0.0,WeatherDisplay:10.37,2013-04-26 04:05:00,
2013-04-25 21:10:00,49.5,45.2,30.10,WNW,282,0.0,0.0,85,0.00,,,0.00,0.0,WeatherDisplay:10.37,2013-04-26 04:10:00,
2013-04-25 21:14:00,49.5,45.2,30.10,West,281,0.0,0.0,85,0.00,,,0.00,0.0,WeatherDisplay:10.37,2013-04-26 04:14:00,
2013-04-25 21:19:00,49.3,45.0,30.10,WNW,282,0.0,0.0,85,0.00,,,0.00,0.0,WeatherDisplay:10.37,2013-04-26 04:19:00,
2013-04-25 21:24:00,49.1,45.1,30.10,WNW,282,0.0,0.0,86,0.00,,,0.00,0.0,WeatherDisplay:10.37,2013-04-26 04:24:00,
2013-04-25 21:29:00,49.0,45.0,30.10,West,281,0.0,0.0,86,0.00,,,0.00,0.0,WeatherDisplay:10.37,2013-04-26 04:29:00,
2013-04-25 21:34:00,48.8,44.8,30.10,WNW,282,0.0,0.0,86,0.00,,,0.00,0.0,WeatherDisplay:10.37,2013-04-26 04:34:00,
2013-04-25 21:39:00,48.8,44.8,30.10,WNW,282,0.0,0.0,86,0.00,,,0.00,0.0,WeatherDisplay:10.37,2013-04-26 04:39:00,
2013-04-25 21:44:00,48.6,44.6,30.11,West,281,0.0,0.0,86,0.00,,,0.00,0.0,WeatherDisplay:10.37,2013-04-26 04:44:00,
2013-04-25 21:49:00,48.5,44.8,30.11,WNW,282,0.0,0.0,87,0.00,,,0.00,0.0,WeatherDisplay:10.37,2013-04-26 04:49:00,
2013-04-25 21:54:00,48.8,44.8,30.10,WNW,282,0.0,0.0,86,0.00,,,0.00,0.0,WeatherDisplay:10.37,2013-04-26 04:54:00,
2013-04-25 21:59:00,48.5,44.5,30.11,West,281,0.0,0.0,86,0.00,,,0.00,0.0,WeatherDisplay:10.37,2013-04-26 04:59:00,
2013-04-25 22:04:00,48.2,44.2,30.11,WNW,282,0.0,0.0,86,0.00,CLR,,0.00,0.0,WeatherDisplay:10.37,2013-04-26 05:04:00,
2013-04-25 22:09:00,48.3,44.6,30.11,West,281,0.0,0.0,87,0.00,CLR,,0.00,0.0,WeatherDisplay:10.37,2013-04-26 05:09:00,
2013-04-25 22:14:00,48.0,44.3,30.11,WNW,282,0.0,0.0,87,0.00,CLR,,0.00,0.0,WeatherDisplay:10.37,2013-04-26 05:14:00,
2013-04-25 22:19:00,47.8,44.1,30.11,WNW,282,0.0,0.0,87,0.00,CLR,,0.00,0.0,WeatherDisplay:10.37,2013-04-26 05:19:00,
2013-04-25 22:24:00,47.4,43.7,30.11,West,281,0.0,0.0,87,0.00,CLR,,0.00,0.0,WeatherDisplay:10.37,2013-04-26 05:24:00,
2013-04-25 22:29:00,47.3,43.9,30.11,WNW,282,0.0,0.0,88,0.00,CLR,,0.00,0.0,WeatherDisplay:10.37,2013-04-26 05:29:00,
2013-04-25 22:34:00,47.4,44.0,30.11,West,281,0.0,0.0,88,0.00,CLR,,0.00,0.0,WeatherDisplay:10.37,2013-04-26 05:34:00,
2013-04-25 22:39:00,47.4,44.0,30.11,WNW,282,0.0,0.0,88,0.00,CLR,,0.00,0.0,WeatherDisplay:10.37,2013-04-26 05:39:00,
2013-04-25 22:44:00,47.3,44.2,30.11,WNW,282,0.0,0.0,89,0.00,CLR,,0.00,0.0,WeatherDisplay:10.37,2013-04-26 05:44:00,
2013-04-25 22:49:00,47.1,44.0,30.10,West,281,0.0,0.0,89,0.00,CLR,,0.00,0.0,WeatherDisplay:10.37,2013-04-26 05:49:00,
2013-04-25 22:54:00,46.9,43.8,30.10,WNW,282,0.0,0.0,89,0.00,CLR,,0.00,0.0,WeatherDisplay:10.37,2013-04-26 05:54:00,
2013-04-25 22:59:00,47.0,43.9,30.11,West,281,0.0,0.0,89,0.00,CLR,,0.00,0.0,WeatherDisplay:10.37,2013-04-26 05:59:00,
2013-04-25 23:04:00,46.9,43.8,30.10,West,281,0.0,0.0,89,0.00,,,0.00,0.0,WeatherDisplay:10.37,2013-04-26 06:04:00,
2013-04-25 23:09:00,46.7,43.6,30.11,WNW,282,0.0,0.0,89,0.00,,,0.00,0.0,WeatherDisplay:10.37,2013-04-26 06:09:00,
2013-04-25 23:14:00,46.7,43.6,30.11,West,281,0.0,0.0,89,0.00,,,0.00,0.0,WeatherDisplay:10.37,2013-04-26 06:14:00,
2013-04-25 23:19:00,46.6,43.5,30.11,WNW,282,0.0,0.0,89,0.00,,,0.00,0.0,WeatherDisplay:10.37,2013-04-26 06:19:00,
2013-04-25 23:24:00,46.4,43.3,30.11,West,281,0.0,0.0,89,0.00,,,0.00,0.0,WeatherDisplay:10.37,2013-04-26 06:24:00,
2013-04-25 23:29:00,46.5,43.7,30.11,West,281,0.0,0.0,90,0.00,,,0.00,0.0,WeatherDisplay:10.37,2013-04-26 06:29:00,
2013-04-25 23:34:00,46.5,43.7,30.11,WNW,282,0.0,0.0,90,0.00,,,0.00,0.0,WeatherDisplay:10.37,2013-04-26 06:34:00,
2013-04-25 23:39:00,46.5,43.7,30.12,West,281,0.0,0.0,90,0.00,,,0.00,0.0,WeatherDisplay:10.37,2013-04-26 06:39:00,
2013-04-25 23:44:00,46.6,43.8,30.11,WNW,282,0.0,0.0,90,0.00,,,0.00,0.0,WeatherDisplay:10.37,2013-04-26 06:44:00,
2013-04-25 23:49:00,46.6,43.8,30.11,WNW,282,0.0,0.0,90,0.00,,,0.00,0.0,WeatherDisplay:10.37,2013-04-26 06:49:00,
2013-04-25 23:54:00,46.2,43.4,30.11,West,281,0.0,0.0,90,0.00,,,0.00,0.0,WeatherDisplay:10.37,2013-04-26 06:54:00,
2013-04-25 23:59:00,46.1,43.3,30.11,WNW,282,0.0,0.0,90,0.00,,,0.00,0.0,WeatherDisplay:10.37,2013-04-26 06:59:00,